Photometre #851[NE_1.6_Dp] Glasgow_MO AOT

File : 20221128_851.hum

28/11/2022,01:21:01,TEMP=11.9,BA=5.64,STAT.h
28/11/2022,01:24:01,TEMP=11.9,BA=5.64,STAT.h
28/11/2022,01:27:01,TEMP=11.9,BA=5.64,STAT.h
28/11/2022,01:30:01,TEMP=11.9,BA=5.64,STAT.h
28/11/2022,01:33:01,TEMP=11.9,BA=5.64,STAT.h
28/11/2022,01:36:01,TEMP=11.9,BA=5.64,STAT.h
28/11/2022,01:39:01,TEMP=11.9,BA=5.64,STAT.h
28/11/2022,01:42:01,TEMP=11.9,BA=5.64,STAT.h
28/11/2022,01:45:01,TEMP=11.9,BA=5.64,STAT.h
28/11/2022,01:48:01,TEMP=11.9,BA=5.64,STAT.h
28/11/2022,01:51:01,TEMP=11.9,BA=5.64,STAT.h
28/11/2022,01:54:01,TEMP=11.9,BA=5.64,STAT.h
28/11/2022,01:57:01,TEMP=11.9,BA=5.64,STAT.h
28/11/2022,02:00:01,TEMP=11.9,BA=5.64,STAT.h
28/11/2022,02:03:01,TEMP=11.9,BA=5.64,STAT.h
28/11/2022,02:06:01,TEMP=11.9,BA=5.64,STAT.h
28/11/2022,02:09:25,TEMP=5.4,BA=5.64,STAT.D,ExtBa=12.30
28/11/2022,02:21:24,TEMP=5.1,BA=5.64,STAT.D,ExtBa=12.30
28/11/2022,02:33:24,TEMP=4.8,BA=5.64,STAT.D,ExtBa=12.30
28/11/2022,02:45:24,TEMP=4.9,BA=5.64,STAT.D,ExtBa=12.30
28/11/2022,02:57:24,TEMP=4.6,BA=5.64,STAT.D,ExtBa=12.30
28/11/2022,03:09:24,TEMP=4.6,BA=5.64,STAT.D,ExtBa=12.30
28/11/2022,03:21:24,TEMP=4.6,BA=5.64,STAT.D,ExtBa=12.30
28/11/2022,03:33:24,TEMP=4.8,BA=5.64,STAT.D,ExtBa=12.30
28/11/2022,03:45:23,TEMP=4.7,BA=5.64,STAT.D,ExtBa=12.30
28/11/2022,03:57:23,TEMP=4.7,BA=5.64,STAT.D,ExtBa=12.30
28/11/2022,04:09:23,TEMP=4.7,BA=5.64,STAT.D,ExtBa=12.30
28/11/2022,04:21:23,TEMP=4.6,BA=5.64,STAT.D,ExtBa=12.30
28/11/2022,04:33:23,TEMP=4.3,BA=5.64,STAT.D,ExtBa=12.30
28/11/2022,04:45:23,TEMP=4.3,BA=5.64,STAT.D,ExtBa=12.30
28/11/2022,04:57:23,TEMP=4.3,BA=5.64,STAT.D,ExtBa=12.30
28/11/2022,05:09:23,TEMP=4.6,BA=5.64,STAT.D,ExtBa=12.30
28/11/2022,05:21:22,TEMP=5.0,BA=5.64,STAT.D,ExtBa=12.30
28/11/2022,05:33:22,TEMP=5.1,BA=5.64,STAT.D,ExtBa=12.30
28/11/2022,05:45:22,TEMP=4.9,BA=5.64,STAT.D,ExtBa=12.30
28/11/2022,05:57:22,TEMP=4.7,BA=5.64,STAT.D,ExtBa=12.30
28/11/2022,06:09:22,TEMP=4.8,BA=5.64,STAT.D,ExtBa=12.30
28/11/2022,06:21:22,TEMP=4.7,BA=5.64,STAT.D,ExtBa=12.30
28/11/2022,06:33:22,TEMP=4.5,BA=5.64,STAT.D,ExtBa=12.30
28/11/2022,06:45:22,TEMP=4.4,BA=5.64,STAT.D,ExtBa=12.30
28/11/2022,06:57:22,TEMP=4.3,BA=5.64,STAT.D,ExtBa=12.30
28/11/2022,07:09:22,TEMP=4.3,BA=5.64,STAT.D,ExtBa=12.30
28/11/2022,07:21:22,TEMP=4.3,BA=5.64,STAT.D,ExtBa=12.30
28/11/2022,07:33:23,TEMP=4.2,BA=5.64,STAT.D,ExtBa=12.30
28/11/2022,07:45:23,TEMP=3.9,BA=5.64,STAT.D,ExtBa=12.30
28/11/2022,07:57:23,TEMP=3.9,BA=5.64,STAT.D,ExtBa=12.30
28/11/2022,08:09:23,TEMP=3.9,BA=5.64,STAT.D,ExtBa=12.30
28/11/2022,08:21:23,TEMP=4.2,BA=5.64,STAT.D,ExtBa=12.30
28/11/2022,08:33:23,TEMP=4.3,BA=5.64,STAT.D,ExtBa=12.30
28/11/2022,08:45:23,TEMP=4.0,BA=5.64,STAT.D,ExtBa=12.30
28/11/2022,08:48:23,TEMP=4.1,BA=5.64,STAT.D,ExtBa=12.30
28/11/2022,08:51:23,TEMP=4.2,BA=5.64,STAT.D,ExtBa=12.30
28/11/2022,08:54:23,TEMP=4.2,BA=5.64,STAT.D,ExtBa=12.20
28/11/2022,08:57:23,TEMP=4.2,BA=5.64,STAT.D,ExtBa=12.20
28/11/2022,09:00:23,TEMP=4.3,BA=5.64,STAT.D,ExtBa=12.20
28/11/2022,09:03:23,TEMP=4.4,BA=5.64,STAT.D,ExtBa=12.20
28/11/2022,09:06:23,TEMP=4.5,BA=5.64,STAT.D,ExtBa=12.20
28/11/2022,09:09:23,TEMP=4.6,BA=5.64,STAT.D,ExtBa=12.20
28/11/2022,09:12:23,TEMP=4.7,BA=5.64,STAT.D,ExtBa=12.20
28/11/2022,09:15:23,TEMP=4.9,BA=5.64,STAT.D,ExtBa=12.20
28/11/2022,09:18:23,TEMP=5.0,BA=5.64,STAT.D,ExtBa=12.20
28/11/2022,09:21:22,TEMP=5.2,BA=5.64,STAT.D,ExtBa=12.20
28/11/2022,09:27:23,TEMP=5.4,BA=5.64,STAT.D,ExtBa=12.20
28/11/2022,09:30:23,TEMP=5.6,BA=5.64,STAT.D,ExtBa=12.20
28/11/2022,09:33:23,TEMP=5.8,BA=5.64,STAT.D,ExtBa=12.20
28/11/2022,09:36:22,TEMP=5.9,BA=5.64,STAT.D,ExtBa=12.20
28/11/2022,09:39:23,TEMP=5.9,BA=5.64,STAT.D,ExtBa=12.20
28/11/2022,09:42:23,TEMP=6.0,BA=5.64,STAT.D,ExtBa=12.20
28/11/2022,09:45:23,TEMP=6.1,BA=5.64,STAT.D,ExtBa=12.20
28/11/2022,09:48:23,TEMP=6.1,BA=5.64,STAT.D,ExtBa=12.20
28/11/2022,09:51:22,TEMP=6.2,BA=5.64,STAT.D,ExtBa=12.20
28/11/2022,09:54:23,TEMP=6.3,BA=5.64,STAT.D,ExtBa=12.20
28/11/2022,09:57:23,TEMP=6.4,BA=5.64,STAT.D,ExtBa=12.20
28/11/2022,10:00:23,TEMP=6.5,BA=5.64,STAT.D,ExtBa=12.20
28/11/2022,10:03:23,TEMP=6.6,BA=5.64,STAT.D,ExtBa=12.20
28/11/2022,10:06:24,TEMP=6.8,BA=5.64,STAT.F,ExtBa=12.20
28/11/2022,10:34:18,TEMP=7.6,BA=5.64,STAT.D,ExtBa=12.10
28/11/2022,10:40:39,TEMP=7.6,BA=5.64,STAT.D,ExtBa=12.10
28/11/2022,10:45:23,TEMP=7.9,BA=5.64,STAT.D,ExtBa=12.10
28/11/2022,10:48:23,TEMP=8.2,BA=5.64,STAT.D,ExtBa=12.10
28/11/2022,10:51:22,TEMP=8.4,BA=5.64,STAT.D,ExtBa=12.10
28/11/2022,10:54:23,TEMP=8.5,BA=5.64,STAT.D,ExtBa=12.10
28/11/2022,10:57:01,TEMP=8.9,BA=5.64,STAT.h
28/11/2022,11:00:01,TEMP=8.9,BA=5.64,STAT.h
28/11/2022,11:03:01,TEMP=8.9,BA=5.64,STAT.h
28/11/2022,11:06:00,TEMP=8.9,BA=5.64,STAT.h
28/11/2022,11:18:01,TEMP=8.9,BA=5.64,STAT.h
28/11/2022,11:21:00,TEMP=8.9,BA=5.64,STAT.h
28/11/2022,11:21:06,TEMP=8.9,BA=5.64,STAT.h
28/11/2022,11:33:01,TEMP=8.9,BA=5.64,STAT.h
28/11/2022,11:36:00,TEMP=8.9,BA=5.64,STAT.h
28/11/2022,11:36:06,TEMP=8.9,BA=5.64,STAT.h
28/11/2022,11:48:01,TEMP=8.9,BA=5.64,STAT.h
28/11/2022,11:51:00,TEMP=8.9,BA=5.64,STAT.h
28/11/2022,11:51:06,TEMP=8.9,BA=5.64,STAT.h
28/11/2022,12:03:01,TEMP=8.9,BA=5.64,STAT.h
28/11/2022,12:06:00,TEMP=8.9,BA=5.64,STAT.h
28/11/2022,12:18:01,TEMP=8.9,BA=5.64,STAT.h
28/11/2022,12:21:00,TEMP=8.9,BA=5.64,STAT.h
28/11/2022,12:21:06,TEMP=8.9,BA=5.64,STAT.h
28/11/2022,12:33:01,TEMP=8.9,BA=5.64,STAT.h
28/11/2022,12:36:00,TEMP=8.9,BA=5.64,STAT.h
28/11/2022,12:36:06,TEMP=8.9,BA=5.64,STAT.h
28/11/2022,12:48:01,TEMP=8.9,BA=5.64,STAT.h
28/11/2022,12:51:00,TEMP=8.9,BA=5.64,STAT.h
28/11/2022,12:51:06,TEMP=8.9,BA=5.64,STAT.h
28/11/2022,13:03:23,TEMP=12.1,BA=5.64,STAT.D,ExtBa=12.20
28/11/2022,13:06:00,TEMP=12.4,BA=5.64,STAT.h
28/11/2022,14:09:01,TEMP=11.4,BA=5.64,STAT.h
28/11/2022,14:12:01,TEMP=11.4,BA=5.64,STAT.h
28/11/2022,14:15:21,TEMP=10.1,BA=5.64,STAT.D,ExtBa=12.20
28/11/2022,14:18:23,TEMP=10.5,BA=5.64,STAT.D,ExtBa=12.10
28/11/2022,14:21:22,TEMP=10.6,BA=5.64,STAT.D,ExtBa=12.10
28/11/2022,14:24:23,TEMP=10.6,BA=5.64,STAT.D,ExtBa=12.10
28/11/2022,14:27:23,TEMP=10.6,BA=5.64,STAT.D,ExtBa=12.10
28/11/2022,14:30:23,TEMP=10.6,BA=5.64,STAT.D,ExtBa=12.10
28/11/2022,14:33:23,TEMP=10.6,BA=5.64,STAT.D,ExtBa=12.10
28/11/2022,14:36:22,TEMP=10.6,BA=5.64,STAT.D,ExtBa=12.10
28/11/2022,14:42:23,TEMP=10.3,BA=5.64,STAT.D,ExtBa=12.10
28/11/2022,14:45:23,TEMP=10.4,BA=5.64,STAT.D,ExtBa=12.10
28/11/2022,14:48:23,TEMP=10.3,BA=5.64,STAT.D,ExtBa=12.10
28/11/2022,14:51:22,TEMP=10.2,BA=5.64,STAT.D,ExtBa=12.10